Location: La Selve
(49.5705°N, 3.9963°E)
Time: 11:53:03
(UTC+00:00)

Daily predictions for brighter satellites

Satellite Brightness Start Highest point End
(mag) Time Altitude Azimuth Time Altitude Azimuth Time Altitude Azimuth
Okean O Rocket 3.1 19:16:49 10° ESE 19:20:04 21° ENE 19:23:20 10° NNE
Cosmos 2084 Rocket 3.8 19:16:11 10° SW 19:20:14 67° NW 19:24:21 10° NE
CZ-4 R/B 1.2 19:21:14 10° SSE 19:24:55 69° ENE 19:28:36 10° N
ATLAS 5 CENTAUR R/B 3.8 19:24:41 10° N 19:26:27 13° NNE 19:28:21 10° NE
NOSS 3-1 (C) 4.3 19:20:51 10° NW 19:27:18 52° NE 19:35:22 10° ESE
SPOT 5 2.9 19:24:09 10° S 19:28:38 74° WSW 19:33:00 10° NNW
NOSS 3-4 (A) 3.4 19:24:23 10° SW 19:29:40 76° NW 19:35:37 10° NE
NOSS 3-4 (C) 3.4 19:24:53 10° SW 19:30:12 77° NW 19:36:12 10° NE
Cosmos 546 4.5 19:27:09 10° WSW 19:30:48 90° W 19:34:29 10° ENE
Cosmos 1656 Rocket 3.7 19:25:37 10° NNW 19:31:06 74° ENE 19:36:38 10° SE
Cosmos 1025 Rocket 3.5 19:27:39 10° N 19:31:43 42° ENE 19:35:47 10° SE
Helios 1A Rocket 2.5 19:29:39 10° NNE 19:32:47 46° ESE 19:35:52 10° S
Cosmos 2242 Rocket 3.7 19:31:27 10° NNW 19:35:55 83° W 19:40:18 10° S
CZ-4B R/B 4.0 19:32:46 10° S 19:36:32 75° WSW 19:40:26 10° NNW
PAYLOAD B 4.3 19:31:12 10° SSE 19:36:39 71° ENE 19:42:08 10° NNW
Cosmos 1733 Rocket 3.0 19:32:18 10° S 19:36:40 82° E 19:41:06 10° NNE
Terra 2.0 19:33:17 10° SSE 19:37:52 56° ENE 19:42:28 10° N
BREEZE-M DEB (TANK) 2.1 19:35:54 10° W 19:38:24 78° SSW 19:43:42 10° ESE
IRAS Rocket 4.5 19:35:39 10° S 19:41:07 73° WSW 19:46:37 10° NNW
Gblst 52 Del rocket 4.5 19:36:31 10° SW 19:42:19 63° SSE 19:48:59 10° ENE
Resurs 01 Rocket 4.3 19:39:32 10° SW 19:42:43 19° W 19:45:54 10° NW
Cosmos 1821 Rocket 4.0 19:37:03 10° S 19:43:19 80° E 19:49:44 10° NNE
Cosmos 2237 Rocket 2.7 19:38:45 10° SW 19:44:25 69° WNW 19:50:08 10° NNE
Cosmos 1980 4.3 19:40:50 10° SW 19:46:24 62° WNW 19:52:02 10° NNE
Cosmos 2218 Rocket 4.3 19:43:17 10° SSW 19:49:23 71° W 19:55:35 10° N
Cosmos 2150 Rocket 4.5 19:45:09 10° S 19:49:51 37° ESE 19:54:38 10° NE
CSL-04 Rocket 4.4 19:44:25 10° S 19:49:52 58° W 19:55:22 10° NNW
Cosmos 1346 Rocket 2.5 19:47:56 10° N 19:51:33 70° ENE 19:55:08 10° SSE
BREEZE-M DEB (TANK) 2.2 19:50:04 10° W 19:52:23 89° N 19:56:48 10° E
Meteor 2-15 Rocket 4.4 19:46:39 10° S 19:52:43 85° E 19:58:52 10° N
COSMOS 2455 4.2 19:47:41 10° NNW 19:52:53 29° NE 19:58:04 10° E
Meteor 2-16 Rocket 4.4 19:51:26 10° N 19:57:37 77° E 20:03:42 10° SSE
SL-4 R/B 3.5 19:55:34 10° S 19:57:35 15° SE 19:57:35 15° SE
Cosmos 1400 Rocket 3.0 19:54:38 10° SSW 19:58:12 65° WNW 20:01:50 10° N
BREEZE-M DEB (TANK) 4.4 19:54:23 10° S 19:58:34 36° ESE 20:11:10 10° ENE
Cosmos 1000 Rocket 4.5 19:52:26 10° N 19:58:37 73° E 20:04:44 10° SSE
Cosmos 1602 2.9 19:56:27 10° N 19:58:38 40° ENE 19:59:37 24° SE
Cosmos 1812 1.8 19:57:40 10° SSW 19:59:16 43° W 20:00:54 10° N
Meteor 1-31 Rocket 3.9 19:57:54 10° SSW 20:01:12 38° W 20:04:32 10° NNW
USA 59 Rocket 1.3 20:00:05 10° WNW 20:03:12 30° SW 20:07:08 10° S
ASTEX 1 3.6 19:59:48 12° SSE 20:04:16 52° ENE 20:09:04 10° N
Gbstr 26 Del rocket 4.5 20:01:04 10° S 20:04:48 20° SE 20:06:31 17° ESE
Cosmos 2297 3.9 20:00:36 10° NNW 20:06:19 62° ENE 20:10:43 17° SE
Cosmos 1869 3.7 20:06:01 18° SSE 20:08:05 33° E 20:11:20 10° NNE
Cosmos 1315 Rocket 4.1 20:08:55 19° ESE 20:09:44 20° E 20:12:31 10° NE
Cosmos 2369 Rocket 2.2 20:05:06 10° NNW 20:10:42 73° ENE 20:14:59 18° SE
SPOT 3 Rocket 4.3 20:08:17 17° ESE 20:11:40 36° ENE 20:16:21 10° N
ADEOS 3.7 20:07:02 10° SSE 20:12:15 80° WSW 20:17:29 10° NNW
SL-08 R/B 3.4 20:09:08 10° NNE 20:14:02 66° ESE 20:18:54 10° S
USA 186 1.3 20:14:08 36° ESE 20:14:38 45° ENE 20:16:56 10° N
Lacrosse 5 rocket 2.7 20:14:13 10° NW 20:16:52 24° N 20:19:31 10° ENE
RESURS DK-1 4.0 20:13:32 10° WSW 20:17:12 35° NW 20:20:52 10° NNE
Cosmos 2221 Rocket 3.5 20:14:33 10° N 20:18:59 86° ENE 20:22:40 15° S
YAOGAN 11 4.2 20:15:09 10° NNE 20:19:20 50° E 20:23:05 13° S
USA 234 3.3 20:13:07 10° ENE 20:19:34 56° SE 20:25:59 10° SW
Cosmos 2285 Rocket 4.0 20:14:32 10° S 20:20:48 65° ESE 20:27:04 10° NNE
SKYMED 3 4.3 20:18:08 10° NNE 20:22:03 85° WNW 20:25:56 10° SSW
Cosmos 405 Rocket 2.6 20:20:57 10° N 20:23:45 38° ENE 20:24:26 33° ESE
NOSS 3-1 (A) 4.3 20:20:30 10° NW 20:27:05 55° NE 20:33:20 18° ESE
Cosmos 1943 3.8 20:23:23 14° SSE 20:27:41 35° ESE 20:32:46 10° NE
Cosmos 921 Rocket 4.0 20:24:13 10° N 20:28:14 33° ENE 20:30:06 23° ESE
Molniya-1 3.2 20:25:48 10° SSW 20:28:29 68° SE 20:34:30 10° NE
CZ-4B R/B 3.2 20:27:35 29° ESE 20:28:41 37° ENE 20:31:50 10° N
CZ-4B R/B 3.8 20:24:26 10° S 20:29:57 57° W 20:35:33 10° NNW
SL-8 R/B 3.6 20:27:49 10° WSW 20:32:30 63° SSE 20:36:05 17° E
SL-08 R/B 4.5 20:26:17 10° N 20:32:32 90° WSW 20:38:00 14° S
Cosmos 1975 Rocket 3.6 20:29:57 10° N 20:34:12 43° ENE 20:35:59 28° SE
Cosmos 1356 Rocket 4.2 20:36:34 28° ESE 20:37:09 30° E 20:40:41 10° NNE
ERS-1 Rocket 4.2 20:35:10 10° SSW 20:39:49 38° W 20:44:30 10° NNW
Cosmos 2263 4.2 20:36:11 10° NNW 20:41:51 89° WSW 20:45:14 26° SSE
CZ-2C R/B 2.9 20:44:39 32° ENE 20:44:39 32° ENE 20:47:14 10° N
Okean-O 2.9 20:44:32 20° S 20:47:27 64° WSW 20:51:49 10° NNW
Cosmos 2298 Rocket 4.1 20:44:23 10° SSW 20:49:42 80° WNW 20:55:04 10° NNE
Cosmos 1908 Rocket 4.1 20:46:46 10° SSW 20:51:01 57° WNW 20:55:17 10° N
Cosmos 44 3.9 20:46:03 10° SW 20:51:08 66° NW 20:56:29 10° NE
Okean O Rocket 2.3 20:53:05 19° S 20:55:57 50° W 21:00:11 10° NNW
CZ-4B R/B 3.3 20:55:25 34° SSE 20:57:30 75° ENE 21:02:15 10° NNW
Ariane Rocket 3.0 20:57:13 34° SE 20:59:23 68° ENE 21:04:24 10° N
CZ-4 R/B 4.2 20:58:15 10° WSW 20:59:23 11° W 21:00:32 10° WNW
Geosat 4.0 20:55:25 10° NNE 21:00:27 83° WNW 21:05:27 10° SW
SL-16 R/B 2.7 20:54:54 10° SW 21:00:30 62° WNW 21:06:09 10° NNE
Cosmos 1782 Rocket 3.4 20:58:38 24° S 21:01:10 86° W 21:05:30 10° N
Cosmos 1934 Rocket 4.2 20:55:57 10° SSW 21:02:12 74° W 21:08:24 10° N
Spot 2 Rocket 4.4 21:03:19 17° SSW 21:06:59 44° W 21:11:47 10° NNW
USA 245 4.1 21:05:18 30° S 21:07:45 75° WSW 21:13:21 10° NNW
Cosmos 1269 Rocket 4.0 21:02:50 10° NNW 21:08:08 84° WSW 21:10:20 36° SSE
ATLAS 5 CENTAUR R/B 2.4 21:05:42 10° NNW 21:09:24 38° NE 21:11:03 28° E
Cosmos 1140 Rocket 3.5 21:05:33 10° NNW 21:10:41 74° WSW 21:12:46 36° S
Terra 4.0 21:12:17 10° SW 21:15:44 20° W 21:19:12 10° NW
NOSS 3-1 (C) 4.4 21:11:27 10° NW 21:18:22 57° SW 21:23:02 28° S
Cosmos 1818 4.3 21:15:42 10° NNW 21:20:56 44° NE 21:23:16 28° E
IRS-P2 Rocket 4.5 21:19:05 42° SSE 21:20:56 82° ENE 21:26:11 10° NNW
Cosmos 1862 3.0 21:19:04 10° NNW 21:22:40 74° W 21:22:56 69° SW
Cosmos 1447 Rocket 4.4 21:18:44 10° N 21:25:02 86° E 21:27:42 37° SSE
Cosmos 2058 2.7 21:23:08 10° NNW 21:27:03 76° W 21:27:31 65° SSW
Meteor 2-17 Rocket 4.4 21:21:08 10° N 21:27:19 71° ENE 21:29:29 42° SSE
Cosmos 407 Rocket 3.4 21:22:31 10° NNW 21:27:40 78° ENE 21:28:57 51° SE
Cosmos 1174 4.5 21:27:55 10° NW 21:30:21 33° W 21:30:21 33° W
Cosmos 371 Rocket 3.3 21:27:31 10° NNW 21:32:22 70° ENE 21:33:16 55° ESE
SL-4 R/B 4.3 21:30:51 10° SW 21:31:14 13° SW 21:31:14 13° SW
ATLAS 2AS CENTAUR R/B 4.2 21:38:07 18° E 21:38:07 18° E 21:41:00 10° ENE
COSMOS 2455 2.8 21:33:26 10° NW 21:39:29 82° WSW 21:41:17 48° SSE
SJ 16-02 1.4 21:36:09 10° NNW 21:40:22 57° ENE 21:40:32 56° ENE
Cosmos 2251 Rocket 3.9 21:37:03 10° NNW 21:42:18 54° ENE 21:43:27 45° ESE
Cosmos 1315 Rocket 4.1 21:43:33 25° WSW 21:45:03 35° WNW 21:48:32 10° N
Cosmos 1536 Rocket 3.6 21:41:15 10° N 21:45:30 60° ENE 21:45:30 60° ENE
Gbstr 26 Del rocket 4.2 21:45:55 10° WSW 21:48:40 31° SW 21:48:40 31° SW
Cosmos 1605 Rocket 4.5 21:47:33 19° SSW 21:51:50 55° WNW 21:57:54 10° N
Lacrosse 5 rocket 2.1 21:50:43 10° NW 21:52:48 37° NW 21:52:48 37° NW
Cosmos 2369 Rocket 4.1 21:50:04 10° NW 21:54:06 21° W 21:56:46 15° SW
SeaSat 1 3.2 21:56:42 37° E 21:57:45 42° NE 22:02:21 10° NNW
USA 234 3.6 21:56:13 10° ENE 22:02:42 66° NNW 22:09:10 10° WSW
Cosmos 1697 Rocket 3.9 21:58:27 10° NNW 22:03:32 33° NE 22:05:24 27° E
Cosmos 2173 Rocket 3.8 22:03:21 56° SSE 22:04:38 73° E 22:10:44 10° NNE
Cosmos 921 Rocket 4.3 22:02:23 10° NW 22:06:15 31° W 22:06:41 30° WSW
Helios 1B rocket 3.1 22:09:10 42° N 22:09:10 42° N 22:11:40 10° N
Cosmos 1892 Rocket 4.5 22:05:16 10° N 22:09:00 38° ENE 22:09:00 38° ENE
Cosmos 1603 3.6 22:07:59 50° SSW 22:09:32 90° W 22:15:17 10° NNE
Cosmos 1943 4.1 22:06:05 10° SW 22:11:34 47° NW 22:17:03 10° NNE
Meteor 2-3 Rocket 3.5 22:07:37 10° NNW 22:13:16 87° ENE 22:14:03 67° SSE
SL-8 R/B 3.9 22:09:58 10° W 22:13:50 58° WSW 22:13:50 58° WSW
Cosmos 2151 Rocket 3.6 22:17:04 75° NW 22:17:04 75° NW 22:21:15 10° N
Okean 1 Rocket 3.4 22:17:47 58° NE 22:17:47 58° NE 22:21:26 10° NNE
NOSS 3-1 (A) 4.4 22:11:12 10° NW 22:18:10 53° WSW 22:20:42 41° S
Helios 1A 3.4 22:18:50 10° NNE 22:22:03 56° N 22:22:03 56° N
Cosmos 1980 Rocket 3.9 22:19:17 10° NNW 22:23:59 25° NE 22:26:39 18° E
Okean 2 Rocket 3.2 22:24:29 73° N 22:24:29 73° N 22:28:32 10° N
Cosmos 968 Rocket 4.1 22:21:42 10° NNW 22:26:44 45° ENE 22:27:16 44° ENE
Cosmos 1190 Rocket 3.9 22:21:57 10° NNW 22:27:15 76° WSW 22:27:28 74° SW
Cosmos 1455 Rocket 4.0 22:28:48 39° NE 22:28:48 39° NE 22:32:01 10° NNE
Cosmos 2100 Rocket 4.0 22:26:44 52° SSW 22:28:18 77° W 22:34:33 10° N
Tsikada Rocket 4.1 22:25:01 10° N 22:31:15 61° ENE 22:32:10 55° ESE
Cosmos 2061 Rocket 4.3 22:35:46 48° ESE 22:36:10 49° E 22:42:06 10° NNE
Cosmos 972 Rocket 4.4 22:35:51 65° SSE 22:36:40 74° ESE 22:43:30 10° NNE
Meteor 1-27 4.3 22:40:54 60° E 22:40:58 60° E 22:46:36 10° NNE
Cosmos 2360 4.2 22:36:09 10° NNW 22:41:49 69° WSW 22:42:06 68° SW
Cosmos 1656 3.8 22:38:56 10° NW 22:44:18 58° WSW 22:44:20 58° WSW
Cosmos 332 Rocket 3.9 22:45:48 10° NNW 22:50:07 71° NW 22:50:07 71° NW
ATLAS 5 CENTAUR R/B 2.9 22:47:32 10° NW 22:50:11 32° W 22:50:11 32° W
ATLAS 3B R/B 3.4 22:43:57 10° NW 22:51:41 56° NE 22:55:41 28° ESE
Cosmos 1954 Rocket 4.4 22:52:28 10° NNW 22:57:15 50° W 22:57:15 50° W
Aureole 3 Rocket 3.9 22:58:44 54° E 22:58:44 54° E 23:04:50 10° NNE
Cosmos 1833 Rocket 2.9 23:01:17 56° E 23:01:17 56° E 23:06:10 10° NE
Cosmos 676 Rocket 4.2 22:56:01 10° NNW 23:00:56 62° W 23:00:56 62° W
Cosmos 2082 Rocket 4.3 23:02:51 14° E 23:02:51 14° E 23:04:46 10° ENE
ALOS 2 3.1 23:03:31 58° N 23:03:31 58° N 23:07:06 10° NNW
Sich 1 Rocket 4.5 23:03:46 44° WNW 23:03:46 44° WNW 23:07:37 10° N
BREEZE-M R/B 4.3 22:54:46 10° W 23:04:00 85° N 23:09:40 10° E
SL-08 R/B 4.3 23:03:25 69° SSW 23:04:11 82° W 23:10:28 10° N
Cosmos 1818 4.3 22:59:21 10° NW 23:03:51 42° W 23:03:51 42° W
Spot 4 4.1 23:08:14 65° NW 23:08:14 65° NW 23:12:25 10° NNW
ARIANE 5 R/B 3.3 23:10:04 51° NW 23:10:04 51° NW 23:13:29 10° NNW
Meteor 2-12 Rocket 4.3 23:03:31 10° NNW 23:09:34 73° W 23:10:02 69° SW
CZ-2C R/B 4.0 23:04:54 10° NNE 23:09:16 36° E 23:09:16 36° E
Cosmos 1725 Rocket 4.3 23:08:51 51° WSW 23:10:08 61° WNW 23:16:24 10° N
DEBRIS 4.2 23:14:40 44° WSW 23:16:30 85° SSE 23:32:55 10° E
Cosmos 2228 3.9 23:18:31 45° N 23:18:31 45° N 23:21:28 10° N
ARIANE 6 FM1 Upper Stage 4.2 23:13:51 10° NW 23:16:01 31° NW 23:16:01 31° NW
SJ 16-02 3.6 23:15:15 10° NW 23:17:02 16° W 23:17:02 16° W
USA 229 DEB 3.9 23:10:34 10° NW 23:18:01 84° NE 23:20:33 49° SE
USA 229 4.0 23:10:37 10° NW 23:18:04 83° NE 23:20:40 48° SE
Cosmos 2233 Rocket 4.0 23:18:32 65° SW 23:19:21 74° W 23:25:38 10° N
Cosmos 1850 Rocket 4.0 23:15:13 10° NNW 23:20:06 74° NNE 23:20:06 74° NNE
Cosmos 2056 Rocket 3.9 23:20:45 56° W 23:21:14 59° WNW 23:26:36 10° NNE
SL-16 R/B 4.5 23:18:18 10° N 23:22:20 19° NE 23:26:21 10° E
ATLAS 2AS CENTAUR R/B 2.5 23:25:29 69° S 23:26:20 79° SE 23:33:11 10° NE
Cosmos 1331 Rocket 4.3 23:27:28 61° ENE 23:27:28 61° ENE 23:32:01 10° NNE
Cosmos 1624 Rocket 4.5 23:28:33 51° WNW 23:28:54 52° WNW 23:33:59 10° NNE
CZ-2C R/B 2.9 23:29:07 56° E 23:29:27 57° ENE 23:34:45 10° N
Cosmos 292 Rocket 4.3 23:25:56 10° NNW 23:29:43 51° NW 23:29:43 51° NW
SeaSat 1 3.6 23:36:18 32° W 23:36:18 32° W 23:39:41 10° NW
Cosmos 2098 Rocket 4.3 23:36:56 43° E 23:36:56 43° E 23:42:08 10° NNE
Cosmos 1626 Rocket 4.4 23:32:50 10° NNW 23:35:57 47° NNW 23:35:57 47° NNW
Nadezhda 4 Rocket 4.1 23:36:14 10° N 23:42:20 59° ENE 23:43:04 55° ESE
Timation 1 Rocket 4.4 23:42:54 62° ESE 23:42:54 62° ESE 23:48:36 10° NE
ACS3 Solar Sail 3.3 23:39:09 10° NE 23:43:51 23° E 23:44:47 22° E
Cosmos 1110 Rocket 4.0 23:44:35 78° N 23:44:35 78° N 23:49:36 10° NNE
Meteor 1-25 Rocket 4.3 23:38:44 10° N 23:44:33 67° ENE 23:44:52 66° E
USA 234 4.2 23:39:02 10° ENE 23:45:13 47° N 23:51:25 10° WNW
Cosmos 1697 Rocket 3.1 23:42:17 10° NW 23:47:06 50° W 23:47:06 50° W
Cosmos 2151 4.0 23:49:51 10° NNW 23:52:40 42° NNW 23:52:40 42° NNW
